Location: Augustenthal
(51.7167°N, 10.2833°E)
Time: 21:25:22
(UTC+00:00)

ISS - Pass Details

Date: 24 September 2021
Orbit: 417 x 423 km, 51.6° (Epoch: 17 October)

Event Time Altitude Azimuth Distance (km) Brightness Sun altitude
Rises 18:52:38 0° 268° (W) 2,363 1.4 -16.1°
Reaches altitude 10° 18:54:44 10° 268° (W) 1,501 0.1 -16.4°
Maximum altitude 18:58:06 89° 349° (NNW) 425 -3.8 -16.9°
Enters shadow 18:58:59 47° 88° (E) 567 -3.5 -17.0°
